This is the latest recevied weather packets stored in our database for station/object N8SDR. If no packets are shown the sender has not sent any weather packets the latest 10 day(s).
| Time | Temp. | Humidity | Pressure | Rain* | Wind** | Luminosity | Snow |
|---|---|---|---|---|---|---|---|
| 1777644409 | 9.44° C | 86% | 1008.8 hPa | 1.27 mm | - | 46 W/m² | - |
| 1777644105 | 10° C | 84% | 1008.8 hPa | 0 mm | - | 32 W/m² | - |
| 1777643802 | 10° C | 83% | 1008.9 hPa | 0 mm | - | 24 W/m² | - |
| 1777643499 | 10° C | 83% | 1008.7 hPa | 0 mm | - | 31 W/m² | - |
| 1777643196 | 10° C | 83% | 1008.6 hPa | 0 mm | - | 49 W/m² | - |
| 1777642893 | 10° C | 83% | 1008.8 hPa | 0 mm | - | 43 W/m² | - |
| 1777642590 | 10° C | 83% | 1008.6 hPa | 0 mm | - | 57 W/m² | - |
| 1777642286 | 10° C | 83% | 1008.8 hPa | 0 mm | - | 32 W/m² | - |
| 1777641983 | 10° C | 83% | 1008.6 hPa | 0 mm | - | 39 W/m² | - |
| 1777641679 | 10° C | 82% | 1008.5 hPa | 0 mm | - | 46 W/m² | - |
| 1777641374 | 10° C | 82% | 1008.7 hPa | 0 mm | - | 52 W/m² | - |
| 1777641069 | 9.44° C | 82% | 1008.8 hPa | 0 mm | - | 54 W/m² | - |
| 1777640765 | 9.44° C | 83% | 1008.8 hPa | 0 mm | - | 53 W/m² | - |
| 1777640463 | 9.44° C | 82% | 1008.7 hPa | 0 mm | - | 45 W/m² | - |
| 1777640160 | 9.44° C | 84% | 1008.6 hPa | 0 mm | - | 54 W/m² | - |
| 1777639856 | 9.44° C | 83% | 1008.5 hPa | 0 mm | - | 97 W/m² | - |
| 1777639554 | 9.44° C | 83% | 1008.6 hPa | 0 mm | - | 48 W/m² | - |
| 1777639250 | 9.44° C | 81% | 1008.8 hPa | 0 mm | - | 28 W/m² | - |
| 1777638947 | 9.44° C | 81% | 1008.9 hPa | 0 mm | - | 19 W/m² | - |
| 1777638642 | 9.44° C | 82% | 1008.9 hPa | 0 mm | - | 22 W/m² | - |
| 1777638339 | 9.44° C | 83% | 1008.8 hPa | 0 mm | - | 44 W/m² | - |
| 1777638035 | 9.44° C | 84% | 1008.8 hPa | 0 mm | - | 64 W/m² | - |
| 1777637732 | 9.44° C | 85% | 1008.8 hPa | 0 mm | - | 26 W/m² | - |
| 1777637428 | 9.44° C | 85% | 1008.6 hPa | 0 mm | - | 13 W/m² | - |
| 1777637126 | 8.89° C | 84% | 1008.6 hPa | 0 mm | - | 16 W/m² | - |
* Rain latest hour (hover to see other rain measurements)
** Current wind speed in m/s (hover to see current wind gust speed)